EW6171 Weather Reports


Display with metric or nautical units.
time (UTC)temp
F
wind
direction
speed
MPH
gust
MPH
rain 1hr
in
rain 24hr
in
rain mn
in
humidity
%
barometer
mb
20260509151133 0 170 0.0 2.0 0.00 0.07 0.07 1007.2
20260509150623 0 194 0.0 2.0 0.00 0.07 0.07 1007.4
20260509145846 0 293 0.0 3.0 0.00 0.07 0.07 1007.2
20260509145339 0 319 0.0 3.0 0.00 0.07 0.07 1007.2
20260509145109 0 299 1.0 4.0 0.00 0.07 0.07 1007.4
20260509144334 0 312 1.0 4.0 0.00 0.07 0.07 1007.4
20260509143834 0 354 0.0 3.0 0.00 0.07 0.07 1007.3
20260509143332 0 310 0.0 1.0 0.00 0.07 0.07 1007.6
20260509142825 0 286 0.0 7.0 0.00 0.07 0.07 1007.4
20260509142317 0 289 1.0 7.0 0.00 0.07 0.07 1007.1
20260509142112 0 262 5.0 8.0 0.00 0.07 0.07 1006.9
20260509140447 0 280 6.0 10.0 0.00 0.07 0.07 1006.9
20260509135939 0 290 7.0 11.0 0.00 0.07 0.07 1007.2
20260509135435 0 277 6.0 11.0 0.00 0.07 0.07 1007.7
20260509134927 0 269 6.0 14.0 0.00 0.07 0.07 1007.3
20260509134421 0 287 7.0 14.0 0.00 0.07 0.07 1007.0
20260509134144 0 327 8.0 14.0 0.00 0.07 0.07 1006.6
20260509133633 0 299 9.0 16.0 0.00 0.07 0.07 1006.5
20260509133123 0 289 11.0 16.0 0.00 0.07 0.07 1006.2
20260509132349 0 311 11.0 21.0 0.00 0.07 0.07 1006.0
20260509131851 0 298 12.0 21.0 0.00 0.07 0.07 1005.9
20260509131342 0 279 9.0 19.0 0.00 0.07 0.07 1005.8
20260509130829 0 282 9.0 19.0 0.00 0.07 0.07 1005.4
20260509130320 0 108 14.0 19.0 0.00 0.07 0.07 1003.9
20260509125808 0 10 13.0 19.0 0.00 0.07 0.07 1004.1
20260509125300 0 123 6.0 17.0 0.01 0.07 0.07 1004.7
20260509125019 0 81 4.0 12.0 0.01 0.07 0.07 1007.1
20260509124234 0 325 10.0 17.0 0.01 0.07 0.07 1007.1
20260509123724 0 234 14.0 19.0 0.02 0.07 0.07 1006.2
20260509123212 0 203 14.0 20.0 0.02 0.07 0.07 1005.4
20260509122943 0 213 13.0 20.0 0.03 0.07 0.07 1005.0
20260509122202 0 217 12.0 17.0 0.04 0.07 0.07 1005.5
20260509121652 0 232 11.0 17.0 0.06 0.07 0.07 1006.2
20260509121142 0 228 11.0 17.0 0.07 0.07 0.07 1006.5
20260509120630 0 10 11.0 16.0 0.07 0.07 0.07 1006.7
20260509120352 0 194 9.0 15.0 0.07 0.07 0.07 1006.9
20260509115610 0 217 7.0 13.0 0.07 0.07 0.07 1007.3
20260509115100 0 223 7.0 11.0 0.06 0.06 0.06 1007.8
20260509114543 0 216 5.0 11.0 0.06 0.06 0.06 1008.0
20260509114040 0 248 5.0 8.0 0.06 0.06 0.06 1008.4
20260509113530 0 10 4.0 8.0 0.05 0.05 0.05 1008.1
20260509113026 0 10 2.0 5.0 0.05 0.05 0.05 1008.0
20260509112517 0 175 2.0 5.0 0.04 0.04 0.04 1008.0
20260509112005 0 200 2.0 5.0 0.02 0.02 0.02 1008.0
20260509111454 0 212 0.0 3.0 0.01 0.01 0.01 1008.0
20260509110945 0 236 0.0 1.0 0.00 0.00 0.00 1008.0
20260509110428 0 283 0.0 1.0 0.00 0.00 0.00 1007.9
20260509105919 0 321 0.0 3.0 0.00 0.00 0.00 1007.6
20260509105408 0 311 1.0 3.0 0.00 0.00 0.00 1007.6
20260509105129 0 306 0.0 2.0 0.00 0.00 0.00 1007.2
20260509104345 0 61 0.0 0.0 0.00 0.00 0.00 1006.7
20260509103835 0 61 0.0 1.0 0.00 0.00 0.00 1006.5
20260509103324 0 61 0.0 1.0 0.00 0.00 0.00 1006.3
20260509102814 0 50 0.0 0.0 0.00 0.00 0.00 1006.4
20260509102535 0 50 0.0 0.0 0.00 0.00 0.00 1006.6
20260509101754 0 160 0.0 0.0 0.00 0.00 0.00 1006.5
20260509101244 0 160 0.0 0.0 0.00 0.00 0.00 1006.5
20260509100734 0 160 0.0 1.0 0.00 0.00 0.00 1006.2
20260509100224 0 160 0.0 1.0 0.00 0.00 0.00 1006.1
20260509095714 0 160 0.0 1.0 0.00 0.00 0.00 1006.3
20260509095204 0 160 0.0 1.0 0.00 0.00 0.00 1006.2
20260509094659 0 171 0.0 1.0 0.00 0.00 0.00 1006.3
20260509094148 0 194 0.0 0.0 0.00 0.00 0.00 1006.3
20260509093638 0 200 0.0 0.0 0.00 0.00 0.00 1006.2
20260509093128 0 200 0.0 0.0 0.00 0.00 0.00 1006.1
20260509092618 0 200 0.0 0.0 0.00 0.00 0.00 1006.0
20260509092108 0 200 0.0 0.0 0.00 0.00 0.00 1006.4
20260509091556 0 91 0.0 3.0 0.00 0.00 0.00 1006.3
20260509091046 0 91 0.0 3.0 0.00 0.00 0.00 1005.8
20260509090536 0 97 1.0 3.0 0.00 0.00 0.00 1005.6
20260509090026 0 105 1.0 3.0 0.00 0.00 0.00 1005.6
20260509085516 0 117 1.0 3.0 0.00 0.00 0.00 1005.5
20260509085006 0 117 1.0 3.0 0.00 0.00 0.00 1005.5
20260509084457 0 117 1.0 3.0 0.00 0.00 0.00 1005.5
20260509083944 0 100 0.0 2.0 0.00 0.00 0.00 1005.7
20260509083426 0 110 0.0 0.0 0.00 0.00 0.00 1005.9
20260509082917 0 110 0.0 0.0 0.00 0.00 0.00 1005.9
20260509082406 0 110 0.0 0.0 0.00 0.00 0.00 1006.1
20260509081856 0 110 0.0 0.0 0.00 0.00 0.00 1006.2
20260509081615 0 109 0.0 0.0 0.00 0.00 0.00 1006.1
20260509080835 0 77 0.0 1.0 0.00 0.00 0.00 1006.0
20260509080325 0 77 0.0 1.0 0.00 0.00 0.00 1005.9
20260509075815 0 80 0.0 1.0 0.00 0.00 0.00 1006.2
20260509075306 0 29 0.0 0.0 0.00 0.00 0.00 1006.6
20260509074803 0 29 0.0 0.0 0.00 0.00 0.00 1006.8
20260509074252 0 29 0.0 0.0 0.00 0.00 0.00 1007.0
20260509073744 0 29 0.0 0.0 0.00 0.00 0.00 1006.8
20260509073231 0 29 0.0 0.0 0.00 0.00 0.00 1006.8
20260509072952 0 29 0.0 0.0 0.00 0.00 0.00 1006.8
20260509072211 0 29 0.0 0.0 0.00 0.00 0.00 1007.0
20260509071701 0 29 0.0 0.0 0.00 0.00 0.00 1007.0
20260509071150 0 29 0.0 0.0 0.00 0.00 0.00 1007.0
20260509070641 0 29 0.0 0.0 0.00 0.00 0.00 1007.0
20260509070131 0 29 0.0 0.0 0.00 0.00 0.00 1006.7
20260509065621 0 29 0.0 0.0 0.00 0.00 0.00 1006.9
20260509065342 0 102 0.0 0.0 0.00 0.00 0.00 1006.9
20260509064601 0 102 0.0 0.0 0.00 0.00 0.00 1006.9
20260509064051 0 102 0.0 0.0 0.00 0.00 0.00 1006.9
20260509063812 0 102 0.0 0.0 0.00 0.00 0.00 1006.9
20260509063030 0 102 0.0 0.0 0.00 0.00 0.00 1006.7
20260509062523 0 124 0.0 1.0 0.00 0.00 0.00 1006.7
20260509062016 0 144 0.0 1.0 0.00 0.00 0.00 1006.8
20260509061509 0 123 0.0 4.0 0.00 0.00 0.00 1006.9
20260509061003 0 122 1.0 4.0 0.00 0.00 0.00 1006.8
20260509060455 0 120 2.0 4.0 0.00 0.00 0.00 1006.6
20260509055948 0 131 3.0 6.0 0.00 0.00 0.00 1006.7
20260509055441 0 122 3.0 7.0 0.00 0.00 0.00 1006.7
20260509055205 0 124 3.0 7.0 0.00 0.00 0.00 1006.8
20260509054427 0 127 3.0 7.0 0.00 0.00 0.00 1006.9
20260509053921 0 122 4.0 7.0 0.00 0.00 0.00 1007.0
20260509053420 0 106 3.0 7.0 0.00 0.00 0.00 1007.2
20260509052913 0 115 3.0 6.0 0.00 0.00 0.00 1007.4
20260509052407 0 122 3.0 6.0 0.00 0.00 0.00 1007.5
20260509051902 0 115 3.0 6.0 0.00 0.00 0.00 1007.5
20260509051359 0 104 3.0 6.0 0.00 0.00 0.00 1007.5
20260509050854 0 92 3.0 7.0 0.00 0.00 0.00 1007.5
20260509050349 0 97 2.0 7.0 0.00 0.00 0.00 1007.5
20260509045843 0 100 3.0 6.0 0.00 0.00 0.00 1007.5
20260509045334 0 91 3.0 7.0 0.00 0.00 0.00 1007.5
20260509044832 0 108 3.0 7.0 0.00 0.00 0.00 1007.5
20260509044324 0 96 3.0 7.0 0.00 0.00 0.00 1007.2
20260509044050 0 107 3.0 5.0 0.00 0.00 0.00 1007.2
20260509043320 0 73 3.0 7.0 0.00 0.00 0.00 1007.0
20260509043044 0 75 4.0 8.0 0.00 0.00 0.00 1006.9
20260509042311 0 94 5.0 8.0 0.00 0.00 0.00 1006.9
20260509041802 0 86 4.0 8.0 0.00 0.00 0.00 1006.9
20260509041300 0 96 3.0 8.0 0.00 0.00 0.00 1007.1
20260509040758 0 10 4.0 7.0 0.00 0.00 0.00 1007.2
20260509040252 0 10 4.0 8.0 0.00 0.00 0.00 1007.1
20260509035741 0 79 4.0 8.0 0.00 0.00 0.00 1007.1
20260509035236 0 95 4.0 8.0 0.00 0.00 0.00 1007.0
20260509034734 0 104 4.0 8.0 0.00 0.00 0.00 1007.2
20260509034229 0 87 3.0 6.0 0.00 0.00 0.00 1007.0
20260509033723 0 94 3.0 8.0 0.00 0.00 0.00 1007.0
20260509033218 0 69 4.0 8.0 0.00 0.00 0.00 1006.9
20260509032712 0 73 4.0 8.0 0.00 0.00 0.00 1006.9
20260509032155 0 86 3.0 8.0 0.00 0.00 0.00 1006.8
20260509031921 0 10 3.0 6.0 0.00 0.00 0.00 1006.7
20260509031143 0 77 3.0 8.0 0.00 0.00 0.00 1006.7
20260509030637 0 76 4.0 8.0 0.00 0.00 0.00 1006.4
20260509030139 0 84 4.0 8.0 0.00 0.00 0.00 1006.1
20260509025626 0 80 4.0 8.0 0.00 0.00 0.00 1006.2
20260509025119 0 81 5.0 8.0 0.00 0.00 0.00 1006.1
20260509024831 0 89 4.0 7.0 0.00 0.00 0.00 1006.2
20260509024050 0 10 4.0 7.0 0.00 0.00 0.00 1006.1
20260509023540 0 93 4.0 8.0 0.00 0.00 0.00 1006.0
20260509023031 0 72 4.0 8.0 0.00 0.00 0.00 1005.8
20260509022520 0 81 3.0 8.0 0.00 0.00 0.00 1005.9
20260509022011 0 75 2.0 6.0 0.00 0.00 0.00 1005.8
20260509021500 0 10 2.0 4.0 0.00 0.00 0.00 1005.8
20260509020950 0 79 1.0 4.0 0.00 0.00 0.00 1005.9
20260509020447 0 86 1.0 4.0 0.00 0.00 0.00 1005.9
20260509020220 0 79 1.0 4.0 0.00 0.00 0.00 1005.7
20260509015448 0 50 2.0 5.0 0.00 0.00 0.00 1006.1
20260509014945 0 66 3.0 5.0 0.00 0.00 0.00 1005.7
20260509014446 0 82 2.0 4.0 0.00 0.00 0.00 1005.5
20260509013936 0 67 2.0 8.0 0.00 0.00 0.00 1005.6
20260509013427 0 73 3.0 8.0 0.00 0.00 0.00 1005.6
20260509012917 0 73 5.0 10.0 0.00 0.00 0.00 1005.3
20260509012407 0 90 5.0 10.0 0.00 0.00 0.00 1005.3
20260509011856 0 95 3.0 8.0 0.00 0.00 0.00 1005.3
20260509011346 0 78 3.0 6.0 0.00 0.00 0.00 1005.4
20260509011116 0 50 3.0 6.0 0.00 0.00 0.00 1005.6
20260509010334 0 85 4.0 8.0 0.00 0.00 0.00 1005.3
20260509005825 0 70 5.0 9.0 0.00 0.00 0.00 1005.2
20260509005315 0 79 5.0 10.0 0.00 0.00 0.00 1005.2
20260509005027 0 80 5.0 8.0 0.00 0.00 0.00 1005.0
20260509004250 0 10 5.0 9.0 0.00 0.00 0.00 1005.4
20260509003740 0 67 4.0 9.0 0.00 0.00 0.00 1005.4
20260509003230 0 73 4.0 8.0 0.00 0.00 0.00 1005.5
20260509002720 0 50 7.0 11.0 0.00 0.00 0.00 1005.2
20260509002211 0 93 6.0 11.0 0.00 0.00 0.00 1004.7
20260509001700 0 75 5.0 10.0 0.00 0.00 0.00 1005.1
20260509001201 0 92 5.0 10.0 0.00 0.00 0.00 1004.9
20260509000651 0 77 5.0 8.0 0.00 0.00 0.00 1005.3
20260509000149 0 70 5.0 10.0 0.00 0.00 0.00 1005.2
20260508235638 0 75 4.0 9.0 0.00 0.00 0.00 1005.2
20260508235359 0 71 4.0 8.0 0.00 0.00 0.00 1005.5
20260508234849 0 71 3.0 8.0 0.00 0.00 0.00 1005.5
20260508234108 0 70 4.0 9.0 0.00 0.00 0.00 1005.8
20260508233559 0 10 5.0 9.0 0.00 0.00 0.00 1005.8
20260508233048 0 10 5.0 8.0 0.00 0.00 0.00 1005.3
20260508232539 0 61 5.0 8.0 0.00 0.00 0.00 1005.2
20260508232028 0 75 6.0 10.0 0.00 0.00 0.00 1004.9
20260508231009 0 84 7.0 11.0 0.00 0.00 0.00 1004.7
20260508230731 0 90 6.0 10.0 0.00 0.00 0.00 1004.9
20260508225948 0 70 5.0 9.0 0.00 0.00 0.00 1005.2
20260508225439 0 73 5.0 9.0 0.00 0.00 0.00 1005.2
20260508224929 0 10 5.0 9.0 0.00 0.00 0.00 1005.3
20260508224649 0 66 6.0 9.0 0.00 0.00 0.00 1005.3
20260508223909 0 59 5.0 9.0 0.00 0.00 0.00 1005.4
20260508223359 0 65 4.0 8.0 0.00 0.00 0.00 1005.4
20260508222849 0 10 4.0 8.0 0.00 0.00 0.00 1005.5
20260508222339 0 67 4.0 8.0 0.00 0.00 0.00 1005.5
20260508221828 0 74 3.0 8.0 0.00 0.00 0.00 1005.8
20260508221549 0 21 4.0 8.0 0.00 0.00 0.00 1005.8
20260508220800 0 77 5.0 10.0 0.00 0.00 0.00 1005.7
20260508220242 0 100 7.0 10.0 0.00 0.00 0.00 1005.4
20260508215222 0 74 5.0 8.0 0.00 0.00 0.00 1005.7
20260508214713 0 75 4.0 8.0 0.00 0.00 0.00 1005.7
20260508214204 0 93 3.0 8.0 0.00 0.00 0.00 1005.7
20260508213653 0 55 4.0 8.0 0.00 0.00 0.00 1006.1
20260508213143 0 10 5.0 9.0 0.00 0.00 0.00 1006.0
20260508212633 0 73 5.0 9.0 0.00 0.00 0.00 1005.9
20260508212123 0 58 4.0 8.0 0.00 0.00 0.00 1006.0
20260508211612 0 58 5.0 9.0 0.00 0.00 0.00 1006.2
20260508211102 0 68 5.0 9.0 0.00 0.00 0.00 1006.3
20260508210552 0 59 5.0 7.0 0.00 0.00 0.00 1006.4
20260508210042 0 60 5.0 10.0 0.00 0.00 0.00 1006.4
20260508205532 0 72 6.0 10.0 0.00 0.00 0.00 1006.5
20260508205022 0 10 6.0 10.0 0.00 0.00 0.00 1006.4
20260508204512 0 54 6.0 10.0 0.00 0.00 0.00 1006.5
20260508204004 0 62 5.0 10.0 0.00 0.00 0.00 1006.6
20260508203450 0 63 5.0 10.0 0.00 0.00 0.00 1006.7
20260508203212 0 61 5.0 10.0 0.00 0.00 0.00 1006.9
20260508202430 0 10 5.0 9.0 0.00 0.00 0.00 1006.9
20260508201916 0 42 6.0 10.0 0.00 0.00 0.00 1006.9
20260508201408 0 53 7.0 10.0 0.00 0.00 0.00 1006.9
20260508200900 0 54 6.0 10.0 0.00 0.00 0.00 1006.8
20260508200354 0 65 7.0 11.0 0.00 0.00 0.00 1006.9
20260508200115 0 52 6.0 11.0 0.00 0.00 0.00 1007.0
20260508195335 0 52 7.0 11.0 0.00 0.00 0.00 1007.0
20260508194829 0 10 8.0 11.0 0.00 0.00 0.00 1007.0
20260508194554 0 50 7.0 11.0 0.00 0.00 0.00 1007.2
20260508193808 0 53 6.0 11.0 0.00 0.00 0.00 1007.1
20260508193300 0 59 6.0 9.0 0.00 0.00 0.00 1007.2
20260508192752 0 41 6.0 9.0 0.00 0.00 0.00 1007.3
20260508192249 0 10 7.0 11.0 0.00 0.00 0.00 1006.4
20260508192013 0 63 6.0 11.0 0.00 0.00 0.00 1007.2
20260508191232 0 58 6.0 10.0 0.00 0.00 0.00 1007.4
20260508190714 0 57 6.0 10.0 0.00 0.00 0.00 1007.5
20260508190209 0 47 5.0 9.0 0.00 0.00 0.00 1007.6
20260508185206 0 10 5.0 9.0 0.00 0.00 0.00 1007.6
20260508184701 0 56 5.0 9.0 0.00 0.00 0.00 1007.5
20260508184152 0 10 4.0 8.0 0.00 0.00 0.00 1007.5
20260508183648 0 10 3.0 8.0 0.00 0.00 0.00 1007.5
20260508183140 0 10 3.0 6.0 0.00 0.00 0.00 1007.6
20260508182632 0 10 4.0 9.0 0.00 0.00 0.00 1007.6
20260508182125 0 20 4.0 9.0 0.00 0.00 0.00 1007.7
20260508181621 0 15 4.0 8.0 0.00 0.00 0.00 1007.9
20260508181115 0 355 5.0 11.0 0.00 0.00 0.00 1008.0
20260508180842 0 28 5.0 11.0 0.00 0.00 0.00 1007.9
20260508180109 0 35 4.0 8.0 0.00 0.00 0.00 1007.9
20260508175608 0 27 4.0 11.0 0.00 0.00 0.00 1007.9
20260508175105 0 34 5.0 11.0 0.00 0.00 0.00 1008.1
20260508174834 0 15 6.0 11.0 0.00 0.00 0.00 1008.2
20260508173547 0 10 7.0 11.0 0.00 0.00 0.00 1008.1
20260508172535 0 10 3.0 10.0 0.00 0.00 0.00 1008.0
20260508172031 0 53 3.0 6.0 0.00 0.00 0.00 1008.0
20260508171520 0 58 2.0 6.0 0.00 0.00 0.00 1008.1
20260508171016 0 35 2.0 5.0 0.00 0.00 0.00 1008.1
20260508170736 0 10 3.0 7.0 0.00 0.00 0.00 1008.1
20260508170002 0 46 2.0 7.0 0.00 0.00 0.00 1008.2
20260508165458 0 83 3.0 8.0 0.00 0.00 0.00 1008.2
20260508165219 0 67 4.0 9.0 0.00 0.00 0.00 1008.1
20260508164442 0 95 3.0 9.0 0.00 0.00 0.00 1008.2
20260508163933 0 82 3.0 8.0 0.00 0.00 0.00 1008.3
20260508163422 0 94 3.0 6.0 0.00 0.00 0.00 1008.5
20260508162911 0 80 2.0 6.0 0.00 0.00 0.00 1008.5
20260508161852 0 108 2.0 7.0 0.00 0.00 0.00 1008.4
20260508161341 0 80 1.0 7.0 0.00 0.00 0.00 1008.5
20260508160837 0 123 1.0 4.0 0.00 0.00 0.00 1008.6
20260508160327 0 111 1.0 4.0 0.00 0.00 0.00 1008.6
20260508155818 0 82 2.0 7.0 0.00 0.00 0.00 1008.6
20260508155308 0 96 3.0 7.0 0.00 0.00 0.00 1008.5
20260508154757 0 98 3.0 4.0 0.00 0.00 0.00 1008.7
20260508154247 0 114 2.0 4.0 0.00 0.00 0.00 1008.8
20260508154007 0 101 1.0 4.0 0.00 0.00 0.00 1009.0
20260508153227 0 84 1.0 5.0 0.00 0.00 0.00 1009.0
20260508152717 0 92 2.0 5.0 0.00 0.00 0.00 1009.0
20260508152438 0 104 2.0 7.0 0.00 0.00 0.00 1009.1
20260508151929 0 88 2.0 7.0 0.00 0.00 0.00 1009.1